Latest Coastal Weather Observations for Low Head

IDV60701

Issued at 4:32 am EST Friday 23 June 2017 (issued every 10 minutes, with the page automatically refreshed every 10 minutes)

About coastal observations | Map of coastal stations | Coastal observations for VIC | Marine services | Other Formats
Station Details ID: 091293 Name: LOW HEAD Lat: -41.05 Lon: 146.79 Height: 3.0 m
Data from the previous 72 hours. | See also: Recent months at Low Head
Date/Time
EST
Temp
°C
Wind Pressure Rain since
9am
mm
Weather Cloud Vis
km
Sea
Height
m
Swell
Dir  Spd
kts
Gust
kts
hPa Trend Height
m
Period
s
Dir
23/04:30am 13.6 NW 25 30 1013.4 - 2.4 - - - - - - -
23/04:00am 13.5 NW 23 29 1014.0 - 2.4 - - - - - - -
23/03:49am 13.5 NW 23 28 1014.1 - 2.4 - - - - - - -
23/03:30am 12.8 WNW 18 32 1014.4 - 2.4 - - - - - - -
23/03:24am 12.8 WNW 23 32 1014.4 - 2.4 - - - - - - -
23/03:00am 13.0 WNW 14 25 1014.6 - 2.4 Recent precip. - - - - - -
23/02:30am 12.2 NNW 7 28 1015.1 - 2.4 - - - - - - -
23/02:00am 10.3 E 6 8 1015.7 - 1.2 - - - - - - -
23/01:30am 10.0 E 6 7 1016.3 - 1.2 - - - - - - -
23/01:00am 9.9 E 5 6 1016.8 - 1.2 - - - - - - -
23/12:30am 10.2 SSE 1 4 1017.3 - 0.8 - - - - - - -
23/12:00am 9.9 SSE 3 4 1017.7 - 0.8 - - - - - - -
 
Date/Time
EST
Temp
°C
Wind Pressure Rain since
9am
mm
Weather Cloud Vis
km
Sea
Height
m
Swell
Dir  Spd
kts
Gust
kts
hPa Trend Height
m
Period
s
Dir
22/11:30pm 9.7 SSE 4 6 1018.3 - 0.8 - - - - - - -
22/11:00pm 9.6 SSE 4 5 1018.8 - 0.8 - - - - - - -
22/10:30pm 11.1 W 6 8 1019.2 - 0.8 - - - - - - -
22/10:00pm 10.7 W 7 10 1019.7 - 0.8 - - - - - - -
22/09:30pm 10.2 WSW 7 9 1020.0 - 0.8 - - - - - - -
22/09:00pm 10.8 WNW 11 14 1020.0 - 0.4 Recent precip. - - - - - -
22/08:30pm 11.1 NW 15 19 1020.3 - 0.2 - - - - - - -
22/08:00pm 11.5 NW 14 16 1020.4 - 0.2 - - - - - - -
22/07:30pm 11.0 NW 11 14 1020.7 - 0.2 - - - - - - -
22/07:00pm 10.5 WNW 10 13 1021.0 - 0.2 - - - - - - -
22/06:30pm 10.1 NW 12 16 1021.3 - 0.2 - - - - - - -
22/06:00pm 10.3 NW 10 12 1021.5 - 0.0 - - - - - - -
22/05:30pm 10.1 WNW 11 13 1021.8 - 0.0 - - - - - - -
22/05:00pm 10.6 WNW 11 13 1022.0 - 0.0 - - - - - - -
22/04:30pm 11.0 WNW 9 12 1022.3 - 0.0 - - - - - - -
22/04:00pm 11.0 WNW 9 12 1022.5 - 0.0 - - - - - - -
22/03:30pm 11.2 WNW 9 11 1022.5 - 0.0 - - - - - - -
22/03:00pm 11.2 WNW 7 9 1022.8 - 0.0 - - - - - - -
22/02:30pm 11.2 W 7 10 1023.1 - 0.0 - - - - - - -
22/02:00pm 11.6 WNW 9 12 1023.5 - 0.0 - - - - - - -
22/01:30pm 11.3 W 7 8 1024.1 - 0.0 - - - - - - -
22/01:00pm 10.3 WSW 8 10 1024.7 - 0.0 - - - - - - -
22/12:30pm 10.3 WSW 8 11 1025.3 - 0.0 - - - - - - -
22/12:00pm 9.4 S 5 7 1025.6 - 0.0 - - - - - - -
22/11:30am 9.2 S 6 8 1026.2 - 0.0 - - - - - - -
22/11:00am 8.3 S 7 8 1026.6 - 0.0 - - - - - - -
22/10:30am 8.9 SSW 6 8 1026.9 - 0.0 - - - - - - -
22/10:00am 8.8 N 4 8 1027.0 - 0.0 - - - - - - -
22/09:30am 7.3 SSE 7 9 1027.1 - 0.0 - - - - - - -
22/09:00am 6.8 SSE 9 11 1027.1 - 0.0 - - - - - - -
22/08:30am 6.3 SSE 8 11 1027.2 - 0.0 - - - - - - -
22/08:00am 7.3 S 10 12 1027.2 - 0.0 - - - - - - -
22/07:30am 6.4 SSE 9 10 1027.2 - 0.0 - - - - - - -
22/07:00am 6.1 SSE 10 13 1027.3 - 0.0 - - - - - - -
22/06:30am 6.1 SSE 11 13 1027.3 - 0.0 - - - - - - -
22/06:00am 6.1 SSE 11 14 1027.2 - 0.0 - - - - - - -
22/05:30am 6.2 SSE 11 13 1027.1 - 0.0 - - - - - - -
22/05:00am 6.8 SSE 10 12 1027.1 - 0.0 - - - - - - -
22/04:30am 6.0 SSE 11 14 1027.1 - 0.0 - - - - - - -
22/04:00am 6.5 SSE 12 15 1027.3 - 0.0 - - - - - - -
22/03:30am 5.9 SSE 12 15 1027.4 - 0.0 - - - - - - -
22/03:00am 5.8 SSE 12 15 1027.5 - 0.0 - - - - - - -
22/02:30am 6.0 SSE 13 16 1027.7 - 0.0 - - - - - - -
22/02:00am 6.1 SSE 13 16 1027.8 - 0.0 - - - - - - -
22/01:30am 5.8 SSE 12 14 1027.9 - 0.0 - - - - - - -
22/01:00am 5.7 SSE 12 14 1028.2 - 0.0 - - - - - - -
22/12:30am 5.6 SSE 10 12 1028.6 - 0.0 - - - - - - -
22/12:00am 5.6 SSE 10 12 1028.7 - 0.0 - - - - - - -
 
Date/Time
EST
Temp
°C
Wind Pressure Rain since
9am
mm
Weather Cloud Vis
km
Sea
Height
m
Swell
Dir  Spd
kts
Gust
kts
hPa Trend Height
m
Period
s
Dir
21/11:30pm 5.4 SSE 12 14 1028.7 - 0.0 - - - - - - -
21/11:00pm 5.8 SSE 11 13 1028.8 - 0.0 - - - - - - -
21/10:30pm 6.2 SSE 11 13 1028.9 - 0.0 - - - - - - -
21/10:00pm 6.7 SSE 10 12 1028.8 - 0.0 - - - - - - -
21/09:30pm 7.5 S 10 13 1028.7 - 0.0 - - - - - - -
21/09:00pm 7.7 S 11 12 1028.6 - 0.0 - - - - - - -
21/08:30pm 7.7 S 10 12 1028.5 - 0.0 - - - - - - -
21/08:00pm 7.2 S 8 11 1028.7 - 0.0 - - - - - - -
21/07:30pm 8.3 S 11 12 1028.5 - 0.0 - - - - - - -
21/07:00pm 7.5 SSE 9 9 1028.2 - 0.0 - - - - - - -
21/06:30pm 7.9 SSE 6 8 1028.1 - 0.0 - - - - - - -
21/06:00pm 8.6 SSE 6 8 1027.9 - 0.0 - - - - - - -
21/05:30pm 9.8 SE 5 7 1027.5 - 0.0 - - - - - - -
21/05:00pm 10.4 CALM 0 0 1027.2 - 0.0 - - - - - - -
21/04:30pm 11.2 W 3 4 1026.9 - 0.0 - - - - - - -
21/04:00pm 12.0 NW 4 6 1026.7 - 0.0 - - - - - - -
21/03:30pm 12.4 WNW 6 8 1026.6 - 0.0 - - - - - - -
21/03:00pm 12.1 WSW 5 9 1026.5 - 0.0 - - - - - - -
21/02:30pm 11.8 SSE 6 8 1026.0 - 0.0 - - - - - - -
21/02:00pm 11.8 SSE 7 8 1025.9 - 0.0 - - - - - - -
21/01:30pm 11.6 S 7 9 1025.9 - 0.0 - - - - - - -
21/01:00pm 11.3 S 7 11 1025.9 - 0.0 - - - - - - -
21/12:30pm 11.1 S 6 9 1026.0 - 0.0 - - - - - - -
21/12:00pm 11.1 S 6 7 1026.2 - 0.0 - - - - - - -
21/11:30am 11.0 S 4 7 1026.2 - 0.0 - - - - - - -
21/11:00am 11.0 SW 6 8 1026.4 - 0.0 - - - - - - -
21/10:30am 10.6 WSW 11 14 1026.2 - 0.0 - - - - - - -
21/10:00am 10.5 WSW 14 16 1026.0 - 0.0 - - - - - - -
21/09:30am 10.3 SW 13 15 1025.8 - 0.0 - - - - - - -
21/09:00am 9.7 SW 10 12 1025.4 - 1.0 - - - - - - -
21/08:30am 9.8 WSW 15 18 1024.8 - 1.0 - - - - - - -
21/08:00am 9.8 SW 14 17 1024.2 - 1.0 - - - - - - -
21/07:30am 10.7 WSW 17 21 1023.7 - 1.0 - - - - - - -
21/07:00am 10.6 WSW 19 21 1023.2 - 1.0 - - - - - - -
21/06:30am 10.8 WSW 19 24 1022.4 - 1.0 - - - - - - -
21/06:00am 10.7 WSW 19 25 1022.0 - 1.0 - - - - - - -
21/05:30am 10.9 WSW 21 26 1021.4 - 1.0 - - - - - - -
21/05:00am 11.0 W 21 24 1020.9 - 1.0 - - - - - - -
21/04:30am 11.2 WSW 23 26 1020.4 - 1.0 - - - - - - -
21/04:00am 11.2 W 22 26 1020.0 - 1.0 - - - - - - -
21/03:30am 11.4 W 22 27 1020.0 - 1.0 - - - - - - -
21/03:00am 11.5 W 23 27 1019.7 - 1.0 - - - - - - -
21/02:30am 11.6 WSW 22 29 1019.5 - 1.0 - - - - - - -
21/02:00am 12.0 W 23 27 1019.0 - 1.0 - - - - - - -
21/01:30am 12.2 W 26 30 1018.5 - 1.0 - - - - - - -
21/01:00am 12.1 W 25 31 1018.2 - 1.0 - - - - - - -
21/12:30am 12.4 WSW 23 27 1018.1 - 1.0 - - - - - - -
21/12:00am 12.7 W 25 30 1017.8 - 1.0 - - - - - - -
 
Date/Time
EST
Temp
°C
Wind Pressure Rain since
9am
mm
Weather Cloud Vis
km
Sea
Height
m
Swell
Dir  Spd
kts
Gust
kts
hPa Trend Height
m
Period
s
Dir
20/11:30pm 13.0 W 23 30 1017.7 - 1.0 - - - - - - -
20/11:06pm 13.2 W 23 35 1017.4 - 1.0 - - - - - - -
20/11:00pm 13.3 W 23 27 1017.5 - 1.0 - - - - - - -
20/10:35pm 13.8 WSW 27 37 1017.3 - 1.0 - - - - - - -
20/10:30pm 14.0 W 29 37 1017.1 - 1.0 - - - - - - -
20/10:16pm 14.2 WNW 30 50 1016.8 - 1.0 - - - - - - -
20/10:13pm 14.1 NW 28 41 1016.6 - 1.0 - - - - - - -
20/10:00pm 14.5 NW 30 38 1016.8 - 0.0 - - - - - - -
20/09:30pm 14.7 NW 29 35 1017.3 - 0.0 - - - - - - -
20/09:00pm 14.4 NW 29 37 1017.3 - 0.0 - - - - - - -
20/08:30pm 14.4 NW 30 36 1017.4 - 0.0 - - - - - - -
20/08:00pm 14.4 NW 27 33 1017.7 - 0.0 - - - - - - -
20/07:30pm 14.4 NW 26 32 1018.2 - 0.0 - - - - - - -
20/07:00pm 14.3 NW 26 33 1018.5 - 0.0 - - - - - - -
20/06:30pm 14.2 NW 26 32 1018.5 - 0.0 - - - - - - -
20/06:00pm 14.2 NW 27 32 1018.4 - 0.0 - - - - - - -
20/05:30pm 14.1 NW 26 31 1018.5 - 0.0 - - - - - - -
20/05:00pm 14.0 NW 26 32 1018.7 - 0.0 - - - - - - -
20/04:30pm 14.0 NW 27 33 1019.0 - 0.0 - - - - - - -
20/04:00pm 14.0 NW 27 32 1018.9 - 0.0 - - - - - - -
20/03:30pm 14.0 NW 25 29 1019.4 - 0.0 - - - - - - -
20/03:00pm 14.2 NW 24 29 1019.6 - 0.0 - - - - - - -
20/02:30pm 14.5 NW 23 28 1019.7 - 0.0 - - - - - - -
20/02:00pm 14.5 NW 22 26 1019.7 - 0.0 - - - - - - -
20/01:30pm 14.6 NW 23 29 1020.1 - 0.0 - - - - - - -
20/01:00pm 14.6 WNW 23 28 1020.7 - 0.0 - - - - - - -
20/12:30pm 14.6 NW 24 30 1021.2 - 0.0 - - - - - - -
20/12:00pm 14.7 NW 23 29 1021.7 - 0.0 - - - - - - -
20/11:30am 14.7 NW 23 29 1022.2 - 0.0 - - - - - - -
20/11:00am 14.4 NNW 24 28 1022.4 - 0.0 - - - - - - -
20/10:30am 14.4 NW 21 25 1022.9 - 0.0 - - - - - - -
20/10:00am 14.3 NW 20 23 1023.2 - 0.0 - - - - - - -
20/09:30am 14.2 NW 20 25 1023.3 - 0.0 - - - - - - -
20/09:00am 14.4 NW 20 24 1023.3 - 1.2 - - - - - - -
20/08:30am 14.3 NNW 17 21 1023.5 - 1.2 - - - - - - -
20/08:00am 14.3 NW 19 23 1023.6 - 1.2 - - - - - - -
20/07:30am 14.1 NW 19 23 1023.6 - 1.2 - - - - - - -
20/07:00am 14.0 NW 19 22 1023.7 - 1.2 - - - - - - -
20/06:30am 13.9 WNW 17 22 1023.8 - 1.2 - - - - - - -
20/06:00am 13.9 WNW 17 20 1023.6 - 1.2 - - - - - - -
20/05:30am 13.7 WNW 17 21 1023.5 - 1.2 - - - - - - -
20/05:00am 13.4 WNW 16 18 1023.7 - 1.2 - - - - - - -

Other Formats:

Comma delimited format used in spreadsheet applications
http://www.bom.gov.au/fwo/IDV60701/IDV60701.95964.axf

JavaScript Object Notation format (JSON) in row-major order
http://www.bom.gov.au/fwo/IDV60701/IDV60701.95964.json